Regional Weather Roundup
Issued by NWS Nashville, TN

Home | Current Version | Previous Version | Text Only | Print | Product List | Glossary On
Versions: 1 2 3 4 5 6 7 8 9 10 11 12 13 14 15 16 17 18 19 20 21 22 23 24 25 26 27 28 29 30 31 32 33 34 35 36 37 38 39 40 41 42 43 44 45 46 47 48 49 50
000
ASUS44 KOHX 280910
RWROHX
MIDDLE TENNESSEE HOURLY WEATHER ROUNDUP
NATIONAL WEATHER SERVICE NASHVILLE TN
400 AM CDT TUE JUL 28 2015

NOTE: "FAIR" INDICATES FEW OR NO CLOUDS BELOW 12,000 FEET WITH
NO SIGNIFICANT WEATHER AND/OR OBSTRUCTIONS TO VISIBILITY.

* THESE REPORTS ARE NOT UNDER NWS QUALITY CONTROL AND MAY NOT
  REPORT WEATHER SUCH AS PRECIPITATION AND FOG.


TNZ005>011-023>034-057-059-062>066-078-080-281000
...NORTHERN MIDDLE TENNESSEE...

CITY           SKY/WX    TMP DP  RH WIND       PRES   REMARKS
CLARKSVILLE    MOCLDY    75  72  90 NE3       29.96R
CROSSVILLE     PTCLDY    72  70  93 CALM      30.05S FOG
DICKSON        MOCLDY    77  75  94 CALM      29.97R
LIVINGSTON     PTCLDY    77  72  84 SW3       30.02S
NASHVILLE      MOCLDY    78  76  93 CALM      29.97R
PORTLAND       MOCLDY   N/A N/A N/A CALM      29.97R
ROCKWOOD       PTCLDY    71  70  97 CALM      30.04S
SMYRNA         MOCLDY    76  75  96 CALM      29.98R
SPARTA         CLEAR     73  73 100 CALM      29.99S
$$
TNZ056-058-060-061-075>077-079-093>097-281000
...SOUTHERN MIDDLE TENNESSEE...

CITY           SKY/WX    TMP DP  RH WIND       PRES   REMARKS
COLUMBIA       CLEAR     75  75 100 CALM      29.96S
LEWISBURG      MOCLDY    73  71  93 CALM      29.97S
MCMINNVILLE    CLEAR     75  75 100 CALM      30.00S
SHELBYVILLE    CLEAR     75  75 100 CALM      29.99S
TULLAHOMA      CLEAR     73  72  94 CALM      30.01S
WINCHESTER     CLEAR     72  70  94 CALM      30.00S
$$


...KEY TO REMARKS...
VSB - VISIBILITY IN MILES
WCI - WIND CHILL INDEX
HX  - HEAT INDEX




USA.gov is the U.S. government's official web portal to all federal, state and local government web resources and services.